Regional Weather Roundup
Issued by NWS Tiyan, Guam

Home | Current Version | Previous Version | Text Only | Print | Product List | Glossary On
Versions: 1 2 3 4 5 6 7 8 9 10 11 12 13 14 15 16 17 18 19 20 21 22 23 24 25 26 27
000
ASGM40 PGUM 250212
RWRGUM
WEATHER ROUNDUP FOR THE MARIANAS
NATIONAL WEATHER SERVICE TIYAN GU
1200 PM CHST WED JAN 25 2017

GUZ001>004-250300-
MARIANA ISLANDS-

CITY           SKY/WX    TMP DP  RH WIND       PRES   REMARKS
GUAM AIRPORT   PTSUNNY   82  72  69 E22G30    29.97F
ANDERSEN AFB   PTSUNNY   82  72  69 NE23      29.98F
ROTA AIRPORT   PTSUNNY   79  72  78 NE21G26   29.98F
TINIAN AP      PTSUNNY   82  73  74 NE24      29.98F
SAIPAN AP      PTSUNNY   82  73  74 NE22      29.98F

$$





USA.gov is the U.S. government's official web portal to all federal, state and local government web resources and services.